Location: Devore Heights
(34.2372°N, 117.4156°W)
Time: 04:21:46
(UTC+00:00)

deb Explorer IX - Pass Details

Date: 21 September 2024
Orbit: 504 x 828 km, 38.7° (Epoch: 05 October)

Event Time Altitude Azimuth Distance (km) Brightness Sun altitude
Rises 23:14:47 0° 219° (SW) 3,066 ? 29.9°
Reaches altitude 10° 23:17:16 10° 210° (SSW) 2,208 ? 29.4°
Maximum altitude 23:21:59 35° 145° (SE) 1,238 ? 28.5°
Drops below altitude 10° 23:27:05 10° 82° (E) 2,400 ? 27.5°
Sets 23:29:52 0° 74° (ENE) 3,369 ? 27.0°
